Location: Marshall
(39.8477°N, 87.1868°W)
Time: 11:29:45
(UTC+00:00)

Tiangong - Visible Passes

Search period start: 08 May 2026 00:00
Search period end: 18 May 2026 00:00
Orbit: 374 x 381 km, 41.5° (Epoch: 8 May)

Date Brightness Start Highest point End Pass type
(mag) Time Alt. Az. Time Alt. Az. Time Alt. Az.
8 May -2.3 09:03:20 50° W 09:04:02 87° NNW 09:07:10 10° ENE visible
9 May 0.3 08:04:06 20° E 08:04:06 20° E 08:05:12 10° E visible
9 May -1.8 09:36:09 13° W 09:38:50 62° N 09:41:56 10° E visible
10 May -2.0 08:36:55 69° N 08:36:55 69° N 08:39:55 10° ENE visible
11 May 1.0 07:37:40 12° ENE 07:37:40 12° ENE 07:37:53 10° ENE visible
11 May -1.8 09:09:43 22° WNW 09:11:32 62° N 09:14:39 10° E visible
12 May -0.6 08:10:30 35° ENE 08:10:30 35° ENE 08:12:32 10° E visible
12 May -2.2 09:43:06 10° WNW 09:46:13 90° N 09:49:20 10° ESE visible
13 May -2.0 08:43:26 49° NW 08:44:06 69° N 08:47:12 10° E visible
14 May 0.7 07:44:26 14° E 07:44:26 14° E 07:44:59 10° E visible
14 May -2.3 09:16:31 18° W 09:18:37 66° SSW 09:21:43 10° ESE visible
15 May -0.7 08:17:45 32° E 08:17:45 32° E 08:19:34 10° ESE visible
15 May -1.0 09:50:16 10° W 09:52:55 25° SSW 09:55:34 10° SSE visible
16 May -1.5 08:51:24 38° S 08:51:24 38° S 08:53:48 10° SE visible
17 May -0.3 09:25:35 15° SSW 09:25:35 15° SSW 09:26:59 10° S visible
